Location: Antin
(43.3330°N, 0.2804°E)
Time: 04:10:22
(UTC+00:00)

IRS-1C Rocket - Pass Details

Date: 16 October 2021
Orbit: 801 x 805 km, 98.9° (Epoch: 02 December)

Event Time Altitude Azimuth Distance (km) Brightness Sun altitude
Exits shadow 18:49:17 - 157° (SSE) 2,886 6.7 -18.1°
Reaches altitude 10° 18:50:35 10° 156° (SSE) 2,371 6.3 -18.3°
Maximum altitude 18:55:48 72° 73° (ENE) 846 4.0 -19.3°
Drops below altitude 10° 19:01:03 10° 350° (N) 2,390 6.7 -20.2°
Sets 19:03:24 0° 348° (NNW) 3,325 7.5 -20.6°
